Regional Weather Roundup
Issued by NWS

Home | Current Version | Previous Version | Text Only | Print | Product List | Glossary Off
Versions: 1 2 3 4 5 6 7 8 9 10 11 12 13 14 15 16 17 18 19 20 21 22 23 24 25 26 27 28 29 30 31 32 33 34 35 36 37 38 39 40 41 42 43 44 45 46 47 48 49 50

000
ASUS45 KPSR 291300
RWRAZ

PRELIMINARY ARIZONA REGIONAL HOURLY WEATHER ROUNDUP
NATIONAL WEATHER SERVICE PHOENIX AZ
600 AM MST FRI AUG 29 2014

NOTE: FAIR INDICATES FEW OR NO CLOUDS BELOW 12,000 FEET WITH NO
SIGNIFICANT WEATHER AND/OR OBSTRUCTIONS TO VISIBILITY.

AZZ001>003-036-291400-
NORTHWEST ARIZONA

CITY           SKY/WX    TMP DP  RH WIND       PRES   REMARKS
KINGMAN        CLEAR     65  36  34 S13       30.02R
$$

AZZ004>008-015-016-018-291400-
NORTH CENTRAL ARIZONA

CITY           SKY/WX    TMP DP  RH WIND       PRES   REMARKS
GRAND CANYON   CLEAR     45  39  79 VRB5      30.26
WILLIAMS       CLEAR     48  39  71 SE10      30.32R
PRESCOTT       CLEAR     55  44  66 S5        30.15R
FLAGSTAFF      CLEAR     42  39  89 CALM      30.29R
PAYSON         CLEAR     64  39  39 N3        30.15S
PAGE           CLEAR     65  42  43 S3        30.11R
$$

AZZ009>014-017-291400-
NORTHEAST ARIZONA

CITY           SKY/WX    TMP DP  RH WIND       PRES   REMARKS
WINSLOW        NOT AVBL
SAINT JOHNS    CLEAR     50  48  93 SW3       30.19R
$$

AZZ023-291400-
GREATER PHOENIX AREA

CITY           SKY/WX    TMP DP  RH WIND       PRES   REMARKS
PHOENIX        CLEAR     84  50  30 E5        29.81R
GLENDALE       CLEAR     82  52  34 CALM      29.83
LUKE AFB       NOT AVBL
DEER VALLEY    CLEAR     80  47  31 NE3       29.83R
SCOTTSDALE     CLEAR     79  52  38 CALM      29.85R
MESA-GATEWAY   CLEAR     75  50  41 NE3       29.86R
CHANDLER       CLEAR     77  54  44 CALM      29.83
$$

AZZ027-028-291400-
SOUTHWEST MARICOPA COUNTY AND PINAL COUNTY

CITY           SKY/WX    TMP DP  RH WIND       PRES   REMARKS
CASA GRANDE    CLEAR     75  48  38 CALM      29.85R
$$

AZZ503-504-507>509-291400-
SOUTHEAST ARIZONA

CITY           SKY/WX    TMP DP  RH WIND       PRES   REMARKS
TUCSON         CLEAR     73  52  47 SE8       29.95R
NOGALES        MOCLDY    59  53  80 CALM      30.04R
SAFFORD        CLEAR     66  49  54 E3        29.97R
$$

AZZ020-021-025-026-031-291400-
SOUTHWEST ARIZONA

CITY           SKY/WX    TMP DP  RH WIND       PRES   REMARKS
YUMA           CLEAR     82  52  35 CALM      29.74R
$$

CAZ031-033-041-043-047-048-061-291400-
SOUTHERN CALIFORNIA

CITY           SKY/WX    TMP DP  RH WIND       PRES   REMARKS
DOWNTOWN L.A.  CLEAR     66  61  84 CALM      29.87R
L.A. AIRPORT   CLEAR     67  63  87 CALM      29.88R
SAN DIEGO      CLEAR     71  65  81 CALM      29.87F
BURBANK        CLEAR     68  45  43 CALM      29.88R
ONTARIO        CLEAR     70  48  45 CALM      29.88S
RIVERSIDE      CLEAR     67  52  58 CALM      29.88S
PALM SPRINGS   CLEAR     84  52  33 CALM      29.79S
EL CENTRO NAS  CLEAR     80  47  31 W6        29.73S
IMPERIAL       CLEAR     78  52  40 W5        29.73R
BLYTHE         CLEAR     77  46  33 CALM      29.77R
$$

NVZ020-UTZ003-291400-
SOUTHERN NEVADA-UTAH

CITY           SKY/WX    TMP DP  RH WIND       PRES   REMARKS
LAS VEGAS      NOT AVBL
SALT LAKE CITY PTCLDY    61  49  64 SE8       30.08S
$$

NMZ009-TXZ055-291400-
NEW MEXICO-WEST TEXAS

CITY           SKY/WX    TMP DP  RH WIND       PRES   REMARKS
ALBUQUERQUE    CLEAR     64  43  46 N7        30.18R
EL PASO        PTCLDY    70  52  52 N8        30.01R
$$


........................KEY........................
SKY/WX - SKY CONDITION/WEATHER
TMP    - TEMPERATURE IN FAHRENHEIT
DP     - DEW POINT IN FAHRENHEIT
RH     - RELATIVE HUMIDITY IN PERCENT
WIND   - DIRECTION AND SPEED IN MILES PER HOUR (MPH)
VRB    - VARIABLE WIND DIRECTION
PRES   - MEAN SEA LEVEL PRESSURE IN INCHES OF MERCURY
         F - FALLING PRESSURE   R - RISING PRESSURE
         S - STEADY PRESSURE
VSB    - VISIBILITY IN MILES
HX     - HEAT INDEX IN FAHRENHEIT
WCI    - WIND CHILL INDEX IN FAHRENHEIT
TC     - TEMPERATURE IN CELSIUS WHICH IS ALSO KNOWN AS
         TEMPERATURE IN CENTIGRADE
AFB    - AIR FORCE BASE
         LUKE AFB IS LUKE AIR FORCE BASE
         DAVIS-MONTHAN IS DAVIS-MONTHAN AIR FORCE BASE
NAS    - NAVAL AIR STATION
         EL CENTRO NAS IS EL CENTRO NAVAL AIR STATION
N/A    - NOT AVAILABLE



USA.gov is the U.S. government's official web portal to all federal, state and local government web resources and services.